Location: Newark
(43.4306°N, 0.3089°E)
Time: 18:59:00
(UTC+00:00)

SR - Pass Details

Date: 31 August 2019
Orbit: 575 x 881 km, 66.7° (Epoch: 15 October)

Event Time Altitude Azimuth Distance (km) Brightness Sun altitude
Rises 19:31:23 0° 324° (NW) 3,319 ? -10.3°
Reaches altitude 10° 19:33:47 10° 321° (NW) 2,424 ? -10.7°
Maximum altitude 19:39:17 57° 244° (WSW) 1,007 ? -11.7°
Drops below altitude 10° 19:45:02 10° 168° (SSE) 2,523 ? -12.6°
Enters shadow 19:46:46 - 165° (SSE) 3,159 ? -12.9°
